Regional Weather Roundup
Issued by NWS Sioux Falls, SD

Home | Current Version | Previous Version | Text Only | Print | Product List | Glossary On
Versions: 1 2 3 4 5 6 7 8 9 10 11 12 13 14 15 16 17 18 19 20 21 22 23 24 25 26 27 28 29 30 31 32 33 34 35 36 37 38 39 40 41 42 43 44 45 46 47 48 49 50
000
ASUS43 KFSD 291810
RWRFSD

WEATHER ROUNDUP FOR SE SOUTH DAKOTA/SW MINNESOTA/NW IOWA
NATIONAL WEATHER SERVICE SIOUX FALLS SD
100 PM CDT FRI AUG 29 2014

NOTE: "FAIR" INDICATES FEW OR NO CLOUDS BELOW 12,000 FEET WITH NO
SIGNIFICANT WEATHER AND OR OBSTRUCTIONS TO VISIBILITY.


SDZ038>040-050-052>070-291900-
SOUTHEAST SOUTH DAKOTA

CITY           SKY/WX    TMP DP  RH WIND       PRES   REMARKS
CHAMBERLAIN    SUNNY     77  67  70 NE3       29.83F
6HR MIN TEMP:  66; 6HR MAX TEMP:  77; 6HR PCP:  0.01;

HURON          PTSUNNY   75  66  73 W5        29.80F
6HR MIN TEMP:  67; 6HR MAX TEMP:  78;

MADISON        CLOUDY    73  73 100 N10       29.82S
MITCHELL       PTSUNNY   76  69  79 NW10      29.81F
6HR MIN TEMP:  68; 6HR MAX TEMP:  76; 6HR PCP: TRACE;

SIOUX FALLS    CLOUDY    74  69  85 S7        29.80F
6HR MIN TEMP:  68; 6HR MAX TEMP:  75;

WINNER         FAIR      80  64  58 N10       29.85F
YANKTON        CLOUDY    73  68  83 CALM      29.81S
$$

MNZ071-072-080-081-089-090-097-098-291900-
SOUTHWEST MINNESOTA

CITY           SKY/WX    TMP DP  RH WIND       PRES   REMARKS
FAIRMONT       CLOUDY    70  66  88 SW8       29.81S
JACKSON        CLOUDY    72  68  88 S7        29.82F
LUVERNE        CLOUDY    73  68  83 SW10      29.81S
MARSHALL       CLOUDY    73  68  83 N6        29.77F
6HR MIN TEMP:  66; 6HR MAX TEMP:  75;

MONTEVIDEO     CLOUDY    72  72 100 N6        29.79S
PIPESTONE      CLOUDY    72  70  94 S8        29.81S
REDWOOD FALLS  RAIN      74  71  91 W10       29.76F FOG
TRACY          CLOUDY    77  70  78 CALM      29.78F
WINDOM         CLOUDY    73  68  83 SW10      29.80S
WORTHINGTON    CLOUDY    72  70  94 SW10      29.83S
$$

IAZ001>003-012>014-020>022-031-032-NEZ013-014-SDZ071-291900-
NORTHWEST IOWA

CITY           SKY/WX    TMP DP  RH WIND       PRES   REMARKS
CHEROKEE       RAIN      71  70  96 S10       29.82S
DENISON        CLOUDY    72  72 100 SW9       29.81F
ESTHERVILLE    CLOUDY    72  69  90 S8        29.81F
LE MARS        CLOUDY    72  70  94 W8        29.81S
ORANGE CITY    DRIZZLE   73  70  88 W6        29.81F
SHELDON        CLOUDY    72  72 100 SW9       29.81S FOG
SIOUX CITY     TSTM      72  70  93 N5        29.79F FOG
6HR MIN TEMP:  71; 6HR MAX TEMP:  74; 6HR PCP:  0.18;

SPENCER        CLOUDY    73  70  90 S8        29.81F
6HR MIN TEMP:  68; 6HR MAX TEMP:  73; 6HR PCP:  0.04;

STORM LAKE     CLOUDY    72  72 100 SW9       29.83F FOG
$$

ABBREVIATIONS USED IN REMARKS
   TC - TEMPERATURE IN CELSIUS
  WCI - WIND CHILL INDEX
   HX - HEAT INDEX
  VSB - VISIBILITY



USA.gov is the U.S. government's official web portal to all federal, state and local government web resources and services.